CW1734 Weather Reports


Display with metric or nautical units.
time (UTC)temp
F
wind
direction
speed
MPH
gust
MPH
rain 1hr
in
rain 24hr
in
rain mn
in
humidity
%
barometer
mb
20190320065410 48 256 0.0 3.0 0.00 0.00 0.00 95 1031.9
20190320064910 48 260 1.0 3.0 0.00 0.00 0.00 95 1031.9
20190320064411 48 262 1.0 6.0 0.00 0.00 0.00 95 1031.9
20190320063910 48 274 3.0 7.0 0.00 0.00 0.00 95 1031.9
20190320063411 48 271 2.0 5.0 0.00 0.00 0.00 95 1031.9
20190320062911 48 234 1.0 3.0 0.00 0.00 0.00 95 1031.9
20190320062410 48 233 2.0 5.0 0.00 0.00 0.00 95 1031.9
20190320061911 48 233 0.0 2.0 0.00 0.00 0.00 95 1031.6
20190320061414 48 233 0.0 3.0 0.00 0.00 0.00 95 1031.6
20190320060911 48 222 2.0 2.0 0.00 0.00 0.00 95 1031.6
20190320060411 48 211 1.0 3.0 0.00 0.00 0.00 95 1031.6
20190320055910 48 233 1.0 5.0 0.00 0.00 0.00 95 1031.6
20190320055410 48 234 1.0 3.0 0.00 0.00 0.00 95 1031.5
20190320054911 48 242 1.0 5.0 0.00 0.00 0.00 95 1031.5
20190320054411 48 277 2.0 5.0 0.00 0.00 0.00 94 1031.5
20190320053911 48 234 1.0 3.0 0.00 0.00 0.00 94 1031.5
20190320053411 48 231 1.0 3.0 0.00 0.00 0.00 94 1031.5
20190320052411 48 204 0.0 0.0 0.00 0.00 0.00 94 1031.4
20190320051911 48 204 0.0 0.0 0.00 0.00 0.00 94 1031.3
20190320051411 47 204 0.0 0.0 0.00 0.00 0.00 94 1031.2
20190320050910 47 204 0.0 0.0 0.00 0.00 0.00 94 1031.2
20190320050411 47 204 0.0 0.0 0.00 0.00 0.00 94 1031.2
20190320045910 47 204 0.0 2.0 0.00 0.00 0.00 94 1031.0
20190320045410 47 204 0.0 2.0 0.00 0.00 0.00 94 1030.9
20190320044911 48 204 0.0 0.0 0.00 0.00 0.00 94 1030.9
20190320044411 48 204 0.0 0.0 0.00 0.00 0.00 94 1030.9
20190320043910 48 204 0.0 0.0 0.00 0.00 0.00 94 1030.9
20190320043410 48 204 0.0 0.0 0.00 0.00 0.00 94 1030.9
20190320042913 48 204 0.0 0.0 0.00 0.00 0.00 94 1030.9
20190320042411 48 204 0.0 0.0 0.00 0.00 0.00 94 1030.9
20190320041911 48 204 0.0 0.0 0.00 0.00 0.00 94 1030.8
20190320041411 48 204 0.0 0.0 0.00 0.00 0.00 94 1030.8
20190320040911 49 204 0.0 0.0 0.00 0.00 0.00 94 1030.8
20190320040411 49 204 0.0 0.0 0.00 0.00 0.00 94 1030.8
20190320035911 49 204 0.0 0.0 0.00 0.00 0.00 94 1030.8
20190320035410 49 204 0.0 0.0 0.00 0.00 0.00 94 1030.8
20190320034911 49 204 0.0 0.0 0.00 0.00 0.00 94 1030.8
20190320034431 49 204 0.0 0.0 0.00 0.00 0.00 94 1030.9
20190320033911 49 204 0.0 0.0 0.00 0.00 0.00 94 1030.9
20190320033410 49 204 0.0 1.0 0.00 0.00 0.00 94 1030.8
20190320032911 49 274 0.0 2.0 0.00 0.00 0.00 94 1030.8
20190320032411 49 274 0.0 2.0 0.00 0.00 0.00 94 1030.8
20190320031911 49 235 0.0 0.0 0.00 0.00 0.00 94 1030.8
20190320031412 49 235 0.0 0.0 0.00 0.00 0.00 94 1030.8
20190320030911 49 235 0.0 1.0 0.00 0.00 0.00 94 1030.8
20190320030411 49 234 0.0 3.0 0.00 0.00 0.00 94 1030.8
20190320025911 49 213 0.0 3.0 0.00 0.00 0.00 94 1030.8
20190320025412 49 228 0.0 5.0 0.00 0.00 0.00 94 1030.8
20190320024911 49 231 2.0 6.0 0.00 0.00 0.00 94 1030.8
20190320024411 49 226 3.0 7.0 0.00 0.00 0.00 94 1030.8
20190320023911 49 224 2.0 8.0 0.00 0.00 0.00 94 1030.8
20190320023411 49 239 1.0 6.0 0.00 0.00 0.00 94 1030.8
20190320022911 49 236 1.0 5.0 0.00 0.00 0.00 94 1030.8
20190320022411 49 222 0.0 2.0 0.00 0.00 0.00 94 1030.8
20190320021911 49 232 0.0 7.0 0.00 0.00 0.00 94 1030.8
20190320021411 49 219 2.0 7.0 0.00 0.00 0.00 94 1030.9
20190320020911 49 221 3.0 8.0 0.00 0.00 0.00 94 1030.8
20190320020412 49 231 1.0 5.0 0.00 0.00 0.00 94 1031.0
20190320015911 49 226 1.0 3.0 0.00 0.00 0.00 94 1031.0
20190320015411 49 228 1.0 3.0 0.00 0.00 0.00 94 1031.0
20190320014911 49 203 1.0 3.0 0.00 0.00 0.00 94 1031.0
20190320014411 49 237 0.0 0.0 0.00 0.00 0.00 94 1031.0
20190320013911 49 238 1.0 5.0 0.00 0.00 0.00 94 1031.0
20190320013411 49 235 2.0 6.0 0.00 0.00 0.00 94 1031.0
20190320012911 49 224 2.0 5.0 0.00 0.00 0.00 94 1030.9
20190320012411 49 221 1.0 5.0 0.00 0.00 0.00 94 1030.9
20190320011915 49 228 2.0 6.0 0.00 0.00 0.00 94 1030.9
20190320011413 49 265 1.0 3.0 0.00 0.00 0.00 94 1030.9
20190320010911 49 236 2.0 5.0 0.00 0.00 0.00 94 1030.9
20190320010412 49 226 0.0 6.0 0.00 0.00 0.00 93 1030.9
20190320005911 49 220 1.0 3.0 0.00 0.00 0.00 93 1030.9
20190320005411 49 234 1.0 5.0 0.00 0.00 0.00 93 1030.9
20190320004911 49 213 1.0 6.0 0.00 0.00 0.00 93 1030.9
20190320004411 49 237 2.0 5.0 0.00 0.00 0.00 93 1030.9
20190320003911 49 220 1.0 3.0 0.00 0.00 0.00 93 1030.9
20190320003411 49 241 2.0 3.0 0.00 0.00 0.00 93 1030.9
20190320002912 49 228 0.0 0.0 0.00 0.00 0.00 93 1030.9
20190320002411 49 224 1.0 3.0 0.00 0.00 0.00 93 1030.7
20190320001911 49 216 1.0 3.0 0.00 0.00 0.00 93 1030.7
20190320001411 49 211 1.0 2.0 0.00 0.00 0.00 93 1030.7
20190320000913 49 224 0.0 2.0 0.00 0.00 0.00 93 1030.7
20190320000411 49 221 0.0 3.0 0.00 0.00 0.00 93 1030.8
20190319235911 49 219 0.0 2.0 0.00 0.00 0.00 93 1030.8
20190319235411 49 230 1.0 3.0 0.00 0.00 0.00 93 1030.8
20190319234913 49 233 1.0 5.0 0.00 0.00 0.00 93 1030.8
20190319234411 49 234 0.0 2.0 0.00 0.00 0.00 93 1030.8
20190319233911 49 229 1.0 7.0 0.00 0.00 0.00 93 1030.8
20190319233412 48 256 1.0 5.0 0.00 0.00 0.00 93 1030.8
20190319232911 48 246 2.0 6.0 0.00 0.00 0.00 92 1030.7
20190319232412 48 243 1.0 3.0 0.00 0.00 0.00 92 1030.7
20190319231937 48 249 1.0 3.0 0.00 0.00 0.00 92 1030.7
20190319231412 48 259 0.0 2.0 0.00 0.00 0.00 92 1030.7
20190319230912 48 256 0.0 3.0 0.00 0.00 0.00 92 1030.8
20190319230425 48 248 0.0 2.0 0.00 0.00 0.00 92 1030.8
20190319225911 48 245 0.0 3.0 0.00 0.00 0.00 92 1030.7
20190319225412 48 250 0.0 0.0 0.00 0.00 0.00 92 1030.7
20190319224911 49 250 0.0 0.0 0.00 0.00 0.00 92 1030.7
20190319224421 49 250 0.0 0.0 0.00 0.00 0.00 92 1030.7
20190319223911 49 250 0.0 0.0 0.00 0.00 0.00 92 1030.6
20190319223411 49 250 0.0 1.0 0.00 0.00 0.00 92 1030.6
20190319222911 49 255 1.0 5.0 0.00 0.00 0.00 92 1030.6
20190319222412 49 245 1.0 3.0 0.00 0.00 0.00 92 1030.6
20190319221912 49 243 0.0 5.0 0.00 0.00 0.00 92 1030.6
20190319221411 49 234 1.0 3.0 0.00 0.00 0.00 92 1030.6
20190319220912 49 264 2.0 7.0 0.00 0.00 0.00 92 1030.5
20190319220411 49 270 2.0 5.0 0.00 0.00 0.00 92 1030.5
20190319215912 49 263 1.0 3.0 0.00 0.00 0.00 92 1030.6
20190319215412 49 282 3.0 5.0 0.00 0.00 0.00 92 1030.6
20190319214912 49 265 1.0 6.0 0.00 0.00 0.00 92 1030.6
20190319214412 49 259 2.0 7.0 0.00 0.00 0.00 92 1030.5
20190319213912 49 257 2.0 6.0 0.00 0.00 0.00 91 1030.5
20190319213412 49 253 1.0 5.0 0.00 0.00 0.00 91 1030.0
20190319212912 49 269 1.0 6.0 0.00 0.00 0.00 91 1030.0
20190319212411 49 253 1.0 5.0 0.00 0.00 0.00 91 1030.0
20190319211911 49 268 1.0 3.0 0.00 0.00 0.00 91 1030.0
20190319211412 49 252 3.0 9.0 0.00 0.00 0.00 91 1030.0
20190319210912 49 266 3.0 8.0 0.00 0.00 0.00 91 1030.0
20190319210412 49 251 2.0 7.0 0.00 0.00 0.00 91 1030.0
20190319205941 49 239 2.0 5.0 0.00 0.00 0.00 91 1030.0
20190319205412 49 242 0.0 3.0 0.00 0.00 0.00 91 1030.0
20190319204911 49 224 0.0 5.0 0.00 0.00 0.00 91 1030.0
20190319204412 49 209 1.0 3.0 0.00 0.00 0.00 91 1030.0
20190319203912 49 202 1.0 5.0 0.00 0.00 0.00 91 1030.0
20190319203411 49 219 0.0 3.0 0.00 0.00 0.00 91 1030.0
20190319202912 49 202 1.0 3.0 0.00 0.00 0.00 91 1030.1
20190319202412 49 244 1.0 3.0 0.00 0.00 0.00 91 1030.1
20190319201912 49 252 1.0 3.0 0.00 0.00 0.00 91 1030.1
20190319201412 49 245 2.0 3.0 0.00 0.00 0.00 91 1030.1
20190319200912 49 252 0.0 3.0 0.00 0.00 0.00 91 1030.1
20190319200412 49 255 1.0 6.0 0.00 0.00 0.00 91 1030.1
20190319195912 49 257 1.0 3.0 0.00 0.00 0.00 91 1030.1
20190319195411 49 254 3.0 8.0 0.00 0.00 0.00 91 1030.2
20190319194917 49 240 1.0 8.0 0.00 0.00 0.00 90 1030.0
20190319194412 49 232 2.0 7.0 0.00 0.00 0.00 90 1030.0
20190319193912 49 236 1.0 6.0 0.00 0.00 0.00 90 1030.0
20190319193412 50 242 3.0 9.0 0.00 0.00 0.00 90 1030.0
20190319192914 50 243 1.0 8.0 0.00 0.00 0.00 90 1029.7
20190319192412 50 236 2.0 6.0 0.00 0.00 0.00 90 1029.7
20190319191912 50 232 1.0 6.0 0.00 0.00 0.00 90 1029.7
20190319191424 50 233 3.0 8.0 0.00 0.00 0.00 90 1029.7
20190319190912 50 240 1.0 5.0 0.00 0.00 0.00 90 1029.6
20190319190412 50 221 1.0 6.0 0.00 0.00 0.00 90 1029.6
20190319185912 50 224 2.0 7.0 0.00 0.00 0.00 90 1029.5
20190319185412 50 240 3.0 9.0 0.00 0.00 0.00 90 1029.5
20190319184912 50 236 3.0 9.0 0.00 0.00 0.00 89 1029.5
20190319184416 50 235 4.0 9.0 0.00 0.00 0.00 89 1029.5
20190319183912 50 227 4.0 8.0 0.00 0.00 0.00 88 1029.5
20190319183412 50 236 3.0 7.0 0.00 0.00 0.00 88 1029.6
20190319182911 50 250 2.0 8.0 0.00 0.00 0.00 88 1029.6
20190319182412 51 242 4.0 8.0 0.00 0.00 0.00 88 1029.3
20190319181912 51 273 3.0 7.0 0.00 0.00 0.00 88 1029.3
20190319181412 51 236 1.0 6.0 0.00 0.00 0.00 88 1029.2
20190319180912 51 241 1.0 7.0 0.00 0.00 0.00 88 1029.2
20190319180412 51 223 2.0 5.0 0.00 0.00 0.00 88 1028.9
20190319175911 51 219 1.0 5.0 0.00 0.00 0.00 88 1028.9
20190319175412 51 247 2.0 8.0 0.00 0.00 0.00 88 1028.9
20190319174912 51 237 2.0 8.0 0.00 0.00 0.00 88 1028.8
20190319174412 51 240 2.0 6.0 0.00 0.00 0.00 88 1028.6
20190319173911 51 235 5.0 9.0 0.00 0.00 0.00 88 1028.6
20190319173412 51 238 3.0 8.0 0.00 0.00 0.00 88 1028.6
20190319172912 51 231 4.0 10.0 0.00 0.00 0.00 88 1028.4
20190319172412 51 219 2.0 8.0 0.00 0.00 0.00 88 1028.4
20190319171912 51 227 2.0 6.0 0.00 0.00 0.00 88 1028.4
20190319171412 51 215 4.0 7.0 0.00 0.00 0.00 88 1028.4
20190319170912 51 235 5.0 12.0 0.00 0.00 0.00 88 1028.3
20190319170412 51 218 4.0 12.0 0.00 0.00 0.00 87 1028.3
20190319165912 51 220 3.0 8.0 0.00 0.00 0.00 87 1028.5
20190319165412 51 228 3.0 8.0 0.00 0.00 0.00 87 1028.5
20190319164912 51 218 3.0 8.0 0.00 0.00 0.00 87 1028.5
20190319164412 51 227 3.0 7.0 0.00 0.00 0.00 87 1028.5
20190319163912 51 235 3.0 8.0 0.00 0.00 0.00 87 1028.5
20190319163413 52 237 2.0 7.0 0.00 0.00 0.00 87 1028.5
20190319162912 52 231 3.0 9.0 0.00 0.00 0.00 87 1028.5
20190319162412 52 242 6.0 9.0 0.00 0.00 0.00 87 1028.2
20190319161919 52 237 3.0 9.0 0.00 0.00 0.00 87 1028.2
20190319161412 52 234 2.0 7.0 0.00 0.00 0.00 87 1028.2
20190319160912 52 201 2.0 8.0 0.00 0.01 0.00 87 1028.2
20190319160412 52 225 3.0 8.0 0.00 0.01 0.00 87 1028.3
20190319155912 52 219 3.0 9.0 0.00 0.01 0.00 86 1028.3
20190319155412 52 216 3.0 7.0 0.00 0.01 0.00 86 1028.3
20190319154912 52 256 4.0 8.0 0.00 0.01 0.00 86 1028.2
20190319154412 52 224 6.0 10.0 0.00 0.01 0.00 86 1028.2
20190319153912 52 232 5.0 8.0 0.00 0.01 0.00 86 1028.3
20190319153412 52 237 4.0 12.0 0.00 0.01 0.00 86 1028.2
20190319152912 52 240 3.0 10.0 0.00 0.01 0.00 86 1028.2
20190319151912 52 247 3.0 8.0 0.00 0.01 0.00 86 1028.2
20190319151412 52 243 5.0 9.0 0.00 0.01 0.00 85 1028.2
20190319150912 52 235 3.0 9.0 0.00 0.01 0.00 85 1028.2
20190319150413 52 227 6.0 12.0 0.00 0.01 0.00 85 1028.2
20190319145912 52 242 3.0 9.0 0.00 0.01 0.00 85 1028.2
20190319145412 52 250 5.0 12.0 0.00 0.01 0.00 85 1028.2
20190319144912 53 217 3.0 12.0 0.00 0.01 0.00 85 1028.2
20190319144412 53 240 5.0 7.0 0.00 0.01 0.00 84 1028.2
20190319143913 53 252 4.0 10.0 0.00 0.01 0.00 84 1028.2
20190319143413 53 253 4.0 9.0 0.00 0.01 0.00 83 1028.2
20190319142912 53 241 6.0 12.0 0.00 0.01 0.00 83 1028.2
20190319142412 53 246 6.0 12.0 0.00 0.01 0.00 82 1028.2
20190319141912 53 250 4.0 9.0 0.00 0.01 0.00 82 1028.2
20190319141412 53 221 5.0 15.0 0.00 0.01 0.00 82 1028.2
20190319140913 54 240 6.0 13.0 0.00 0.01 0.00 81 1028.1
20190319140412 54 250 3.0 13.0 0.00 0.01 0.00 81 1028.1
20190319135912 54 247 4.0 13.0 0.00 0.01 0.00 80 1028.1
20190319135416 54 237 5.0 12.0 0.00 0.01 0.00 80 1028.1
20190319134912 54 241 5.0 10.0 0.00 0.01 0.00 79 1028.1
20190319134412 54 256 6.0 12.0 0.00 0.01 0.00 79 1028.1
20190319133912 54 239 6.0 12.0 0.00 0.01 0.00 78 1028.1
20190319133413 55 224 6.0 12.0 0.00 0.01 0.00 78 1028.1
20190319132913 55 240 6.0 12.0 0.00 0.01 0.00 78 1028.1
20190319132412 55 260 5.0 9.0 0.00 0.01 0.00 79 1028.1
20190319131912 55 248 3.0 9.0 0.00 0.01 0.00 80 1028.1
20190319131412 55 240 5.0 12.0 0.00 0.02 0.00 79 1028.2
20190319130913 55 230 4.0 12.0 0.00 0.02 0.00 79 1028.2
20190319130413 55 220 3.0 9.0 0.00 0.02 0.00 78 1028.2
20190319125912 55 216 6.0 12.0 0.00 0.02 0.00 78 1028.2
20190319125414 55 250 4.0 12.0 0.00 0.02 0.00 78 1028.2
20190319124913 55 196 4.0 12.0 0.00 0.02 0.00 79 1028.2
20190319124412 55 252 4.0 10.0 0.00 0.02 0.00 79 1028.3
20190319123913 55 259 4.0 12.0 0.00 0.02 0.00 79 1028.3
20190319123413 55 257 5.0 9.0 0.00 0.02 0.00 79 1028.3
20190319122913 55 254 5.0 9.0 0.00 0.02 0.00 79 1028.3
20190319122413 55 242 4.0 9.0 0.00 0.02 0.00 79 1028.3
20190319121913 55 263 5.0 13.0 0.00 0.02 0.00 79 1028.3
20190319121413 55 258 3.0 10.0 0.00 0.02 0.00 79 1028.3
20190319120913 55 262 6.0 12.0 0.00 0.02 0.00 79 1028.3
20190319120413 55 259 5.0 12.0 0.00 0.02 0.00 79 1028.3
20190319115913 55 228 6.0 13.0 0.00 0.02 0.00 78 1028.3
20190319115412 55 255 6.0 14.0 0.00 0.02 0.00 79 1028.2
20190319114913 55 217 4.0 10.0 0.00 0.02 0.00 80 1028.2
20190319114412 55 212 5.0 10.0 0.00 0.02 0.00 80 1028.2
20190319113912 55 235 6.0 13.0 0.00 0.02 0.00 81 1028.2
20190319113413 55 246 6.0 12.0 0.00 0.02 0.00 82 1028.2
20190319112913 55 231 6.0 13.0 0.00 0.02 0.00 84 1028.2
20190319112412 54 245 3.0 9.0 0.00 0.02 0.00 85 1028.2
20190319111914 54 267 5.0 10.0 0.00 0.02 0.00 85 1028.0
20190319111412 54 271 5.0 10.0 0.00 0.02 0.00 86 1028.0
20190319110912 53 269 3.0 6.0 0.00 0.02 0.00 86 1028.0
20190319110413 53 254 3.0 8.0 0.00 0.02 0.00 87 1028.0
20190319105913 53 254 4.0 10.0 0.00 0.02 0.00 88 1028.0
20190319105412 53 247 5.0 10.0 0.00 0.02 0.00 89 1028.0
20190319104912 53 269 4.0 10.0 0.00 0.02 0.00 90 1028.0
20190319104413 53 235 4.0 10.0 0.00 0.02 0.00 91 1028.0
20190319103913 52 235 4.0 12.0 0.00 0.02 0.00 91 1028.0
20190319103412 52 223 5.0 10.0 0.00 0.02 0.00 93 1028.0
20190319102913 52 237 5.0 10.0 0.00 0.02 0.00 93 1027.9
20190319102413 52 233 3.0 9.0 0.00 0.02 0.00 94 1027.7
20190319101913 51 262 5.0 10.0 0.00 0.02 0.00 94 1027.7
20190319101426 51 258 5.0 12.0 0.00 0.02 0.00 95 1027.7
20190319100913 51 239 5.0 12.0 0.00 0.02 0.00 95 1027.7
20190319100413 51 232 4.0 10.0 0.00 0.02 0.00 95 1027.7
20190319095913 50 221 3.0 9.0 0.00 0.02 0.00 95 1027.7
20190319095413 50 231 2.0 9.0 0.00 0.02 0.00 96 1027.7
20190319094913 50 238 3.0 8.0 0.00 0.02 0.00 96 1027.7
20190319094413 50 259 3.0 6.0 0.00 0.02 0.00 96 1027.7
20190319093913 49 244 3.0 7.0 0.00 0.02 0.00 96 1027.7
20190319093413 49 260 3.0 7.0 0.00 0.02 0.00 96 1027.7
20190319093008 49 239 2.0 6.0 0.00 0.02 0.00 96 1027.7
20190319092413 49 252 2.0 5.0 0.00 0.02 0.00 96 1027.7
20190319091913 48 276 2.0 5.0 0.00 0.02 0.00 96 1027.7
20190319091420 48 239 1.0 5.0 0.00 0.02 0.00 96 1027.6
20190319090913 47 236 0.0 3.0 0.00 0.02 0.00 96 1027.6
20190319090413 47 242 2.0 5.0 0.00 0.02 0.00 96 1027.6
20190319085931 47 206 0.0 3.0 0.00 0.02 0.00 96 1027.4
20190319085413 47 206 1.0 3.0 0.00 0.02 0.00 96 1027.4
20190319084913 46 206 1.0 2.0 0.00 0.02 0.00 96 1027.4
20190319084413 46 206 1.0 2.0 0.00 0.02 0.00 96 1027.4
20190319083912 46 203 2.0 3.0 0.00 0.02 0.00 96 1027.4
20190319083413 45 215 1.0 3.0 0.00 0.02 0.00 96 1027.4
20190319082913 45 217 0.0 2.0 0.00 0.02 0.00 96 1027.4
20190319082413 45 214 1.0 3.0 0.00 0.02 0.00 96 1027.1
20190319081913 44 222 1.0 3.0 0.00 0.02 0.00 96 1027.1
20190319081413 44 263 0.0 0.0 0.00 0.02 0.00 95 1027.1
20190319080913 43 263 0.0 0.0 0.00 0.02 0.00 96 1027.1
20190319080415 43 263 0.0 0.0 0.00 0.02 0.00 95 1027.1
20190319075913 42 263 0.0 2.0 0.00 0.02 0.00 95 1027.1
20190319075413 42 263 0.0 2.0 0.00 0.02 0.00 95 1027.2
20190319074913 41 263 0.0 1.0 0.00 0.02 0.00 95 1027.2
20190319074413 41 263 0.0 1.0 0.00 0.02 0.00 95 1027.2
20190319073913 41 263 0.0 0.0 0.00 0.02 0.00 95 1027.1
20190319073413 40 263 0.0 0.0 0.00 0.02 0.00 95 1026.9
20190319072913 40 263 0.0 0.0 0.00 0.02 0.00 94 1026.9
20190319072414 40 263 0.0 0.0 0.00 0.02 0.00 94 1026.9
20190319071913 39 263 0.0 0.0 0.00 0.02 0.00 94 1026.9
20190319071414 39 263 0.0 0.0 0.00 0.02 0.00 94 1026.9
20190319070912 39 263 0.0 0.0 0.00 0.02 0.00 94 1026.9
20190319070420 39 263 0.0 0.0 0.00 0.02 0.00 94 1026.8
20190319065914 38 263 0.0 0.0 0.00 0.02 0.00 94 1026.5